STARLINK-11597, 63115

Orbit data source: Space-Track

STARLINK-11597, 63115 is a payload satellite owned by SpaceX/Seattle (US) in LEO that was launched on Thu, 27 Feb 2025 UTC via an FALCON 9 launch vehicle from the Air Force Eastern Test Range (AFETR). Payload-class satellites include a variety of spacecraft equipped with specific instruments for various scientific and technological missions. These include communications satellites like Starlink; space stations such as the ISS; scientific satellites like the Hubble; Earth observation satellites from companies like Planet Labs, Umbra, and HawkEye 360; GPS; miniature CubeSats for education and research; and military/defense satellites.

Loading next visibility...
Identifier
63115, 2025-039M
Orbit
LEO
Country
Flag of USUS
Related business
Manufacturer
SpaceX/Seattle
Mission
Operational Commercial Communications
Bus & Motor
STARLINK V2MD, Unknown motor
Mass
960 kg wet, ~910 kg dry
Launch date (UTC)
2025-02-27 (8 months ago)
Launch vehicle
FALCON 9
Launch site
Air Force Eastern Test Range (AFETR)
Object type
Payload
Rocket body
Debris
Shape & HBR
Box + 2 Pan, 18.1 m
Radar Cross Section
36.964 m², Large (>1 m²)

Expand to show TLE details & history
Last TLE update: 23 hours ago

TLE from 23 hours ago
0 STARLINK-11597
1 63115U 25039M   25292.62879016  .00183436  00000-0  14005-2 0  9991
2 63115  42.9973   6.8038 0002206 222.7876 137.2821 15.70860839 37439
Epoch: 2025-10-19T15:05Z
TLE epoch observation values (Epoch: 2025-10-19T15:05:27.469Z)
Latitude
0.00003°
Longitude
112.09666°
Altitude
357.298 km
Speed
7.696 km/s
True Right ascension
00h 27m 12s
True Declination
0° 00' 00"
Sunlit
Object was in full shadow at epoch
Visualization orbit readout
Latitude
Unknown
Longitude
Unknown
Altitude
Unknown
Speed
Unknown
Apparent Right ascension
Unknown
Apparent Declination
Unknown
Sunlit
N/A
Visualization observer readout
Local Sidereal Time
09:16:56
Azimuth
Unknown
Elevation
Unknown
Doppler factor
Unknown
Orbital elements
Apogee altitude
359.904 km
Perigee altitude
356.931 km
Semi-major axis
6,736.555 km
Eccentricity
0.00022
Inclination
42.9973°
RAAN
6.8038°
Arg. of periapsis
222.7876°
True anomaly
137.29925°
Mean anomaly
137.2821°
Eccentric anomaly
137.29067°
Mean motion
3.92542 °/min
Orbital period
91.71 mins
BSTAR
0.0014005
Loading maneuver chart data...
Computing Atmospheric mass density...
Loading historical data...
Loading historical data...
Loading historical data...
Loading historical data...
Loading historical data...
Loading historical data...
Loading historical data...

Documentation

Showing up to 5 results
|